Find Starlink 5903

NORAD ID: 55996 Int'l Des: 2023-042 Owner: SPXS Country: US Constellation: starlink operational
LEOCIRCULAR

Current View

Loading 3D Globe...

About Starlink 5903

Starlink 5903 (NORAD 55996) is a starlink constellation satellite (v1.5) launched Mar 24, 2023 by SPXS of US. It operates in LEO, CIRCULAR orbit with a mass of 305.00 kg.

About Starlink 5903

Description loading...

Upcoming Passes

Passes for default location (London). Set your location on the main map for personalized predictions.

Altitude History

Loading altitude history...

Two-Line Element Set

1 55996U 23042L 26166.45095117 -.00000251 00000-0 37424-6 0 9993
2 55996 43.0044 227.2601 0000519 258.8492 101.2301 15.27575472177811
Epoch: Jun 15, 2026 • Age: 31 hours

Current Status

Altitude 482.5 km
Velocity 7.63 km/s
Sub-Earth Point 3.32°N, 129.51°W
Launch Date Mar 24, 2023
Age 3.2 years
Type internet

Technical Details

Classification Payload
Mass 305.00 kg
Dry Mass 290.00 kg
Total Mass 305.00 kg
Length 0.20 m
Diameter 2.80 m
Span 9.00 m
Shape Box + pan
Manufacturer SPXS
Bus Type Starlink
Phase Status In Orbit
Owner/State SPXS/US

Most Searched